timestamp,surface_pressure_avg,surface_temp_avg,battery_voltage,lat,long
2021-12-12 00:09:00+00:00,208.1581,6.0,12.65,47.84626,-54.09684
2021-12-12 00:19:00+00:00,204.7915,5.94,12.65,47.84626,-54.09684
2021-12-12 00:29:00+00:00,203.8998,6.0,12.65,47.84626,-54.09684
2021-12-12 00:39:00+00:00,205.0314,6.18,12.65,47.84626,-54.09684
2021-12-12 00:49:00+00:00,203.0231,6.22,12.65,47.84626,-54.09684
2021-12-12 00:59:00+00:00,201.3248,6.29,12.65,47.84626,-54.09684
2021-12-12 01:09:00+00:00,211.1098,6.3,12.65,47.84626,-54.09684
2021-12-12 01:19:00+00:00,216.2081,6.32,12.65,47.84626,-54.09684
2021-12-12 01:29:00+00:00,213.3765,6.4,12.65,47.84626,-54.09684
2021-12-12 01:39:00+00:00,212.5898,6.4,12.65,47.84626,-54.09684
2021-12-12 01:49:00+00:00,214.4715,6.48,12.65,47.84626,-54.09684
2021-12-12 01:59:00+00:00,217.1431,6.43,12.65,47.84626,-54.09684
2021-12-12 02:09:00+00:00,225.7564,6.43,12.65,47.84626,-54.09684
2021-12-12 02:19:00+00:00,234.7947,6.46,12.65,47.84626,-54.09684
2021-12-12 02:29:00+00:00,239.2548,6.4,12.65,47.84626,-54.09684
2021-12-12 02:39:00+00:00,244.088,6.4,12.65,47.84626,-54.09684
2021-12-12 02:49:00+00:00,248.8214,6.47,12.65,47.84626,-54.09684
2021-12-12 02:59:00+00:00,252.9214,6.4,12.65,47.84626,-54.09684
2021-12-12 03:09:00+00:00,261.0681,6.38,12.65,47.84626,-54.09684
2021-12-12 03:19:00+00:00,270.2214,6.4,12.65,47.84626,-54.09684
2021-12-12 03:29:00+00:00,271.5747,6.4,12.65,47.84626,-54.09684
2021-12-12 03:39:00+00:00,276.6231,6.3,12.65,47.84626,-54.09684
2021-12-12 03:49:00+00:00,283.5864,6.2,12.65,47.84626,-54.09684
2021-12-12 03:59:00+00:00,286.2648,6.2,12.65,47.84626,-54.09684
2021-12-12 04:09:00+00:00,285.6514,6.2,12.65,47.84626,-54.09684
2021-12-12 04:19:00+00:00,295.7114,6.37,12.65,47.84626,-54.09684
2021-12-12 04:29:00+00:00,302.5764,6.5,12.65,47.84626,-54.09684
2021-12-12 04:39:00+00:00,304.318,6.58,12.65,47.84626,-54.09684
2021-12-12 04:49:00+00:00,304.973,6.59,12.65,47.84626,-54.09684
2021-12-12 04:59:00+00:00,311.2731,6.5,12.65,47.84626,-54.09684
2021-12-12 05:09:00+00:00,320.9396,6.5,12.65,47.84626,-54.09684
2021-12-12 05:19:01+00:00,320.3981,6.49,12.65,47.84626,-54.09684
2021-12-12 05:29:01+00:00,320.568,6.4,12.65,47.84626,-54.09684
2021-12-12 05:39:01+00:00,326.5714,6.46,12.65,47.84626,-54.09684
2021-12-12 05:49:01+00:00,332.8879,6.57,12.65,47.84626,-54.09684
2021-12-12 05:59:01+00:00,329.8696,6.54,12.65,47.84626,-54.09684
2021-12-12 06:09:01+00:00,332.6329,6.7,12.65,47.84626,-54.09684
2021-12-12 06:19:00+00:00,337.1012,6.78,12.65,47.84626,-54.09684
2021-12-12 06:29:00+00:00,335.0013,6.79,12.65,47.84626,-54.09684
2021-12-12 06:39:00+00:00,333.3347,6.8,12.65,47.84626,-54.09684
2021-12-12 06:49:00+00:00,339.3313,6.8,12.65,47.84626,-54.09684
2021-12-12 06:59:00+00:00,340.4746,6.8,12.65,47.84626,-54.09684
2021-12-12 07:09:00+00:00,334.9446,6.5,12.65,47.84626,-54.09684
2021-12-12 07:19:01+00:00,337.473,6.4,12.65,47.84626,-54.09684
2021-12-12 07:29:01+00:00,343.7279,6.4,12.65,47.84626,-54.09684
2021-12-12 07:39:01+00:00,344.8663,6.37,12.65,47.84626,-54.09684
2021-12-12 07:49:01+00:00,338.1363,6.3,12.65,47.84626,-54.09684
2021-12-12 07:59:01+00:00,335.7629,6.3,12.65,47.84626,-54.09684
2021-12-12 08:09:01+00:00,340.0163,6.3,12.65,47.84626,-54.09684
2021-12-12 08:19:00+00:00,337.5964,6.3,12.57,47.84626,-54.09684
2021-12-12 08:29:00+00:00,335.608,6.2,12.57,47.84626,-54.09684
2021-12-12 08:39:00+00:00,331.8830000000001,6.18,12.57,47.84626,-54.09684
2021-12-12 08:49:00+00:00,320.973,6.19,12.57,47.84626,-54.09684
2021-12-12 08:59:00+00:00,306.5514,6.19,12.57,47.84626,-54.09684
2021-12-12 09:09:00+00:00,305.0513,6.2,12.57,47.84626,-54.09684
2021-12-12 09:19:00+00:00,306.2097,6.21,12.65,47.84626,-54.09684
2021-12-12 09:29:00+00:00,296.0881,6.3,12.65,47.84626,-54.09684
2021-12-12 09:39:00+00:00,282.5564,6.1,12.65,47.84626,-54.09684
2021-12-12 09:49:00+00:00,279.8831,6.29,12.65,47.84626,-54.09684
2021-12-12 09:59:00+00:00,276.0931,6.4,12.65,47.84626,-54.09684
2021-12-12 10:09:00+00:00,270.703,6.3,12.65,47.84626,-54.09684
2021-12-12 10:19:00+00:00,264.4631,6.2,12.65,47.84626,-54.09684
2021-12-12 10:29:00+00:00,263.0297,6.2,12.65,47.84626,-54.09684
2021-12-12 10:39:00+00:00,257.2115,6.2,12.65,47.84626,-54.09684
2021-12-12 10:49:00+00:00,252.2498,6.26,12.65,47.84626,-54.09684
2021-12-12 10:59:00+00:00,250.1198,6.26,12.65,47.84626,-54.09684
2021-12-12 11:09:00+00:00,244.7831,6.28,12.65,47.84626,-54.09684
2021-12-12 11:19:00+00:00,238.1114,6.29,12.65,47.84626,-54.09684
2021-12-12 11:29:00+00:00,234.7864,6.29,12.65,47.84626,-54.09684
2021-12-12 11:39:00+00:00,234.2947,6.29,12.65,47.84626,-54.09684
2021-12-12 11:49:00+00:00,232.5814,6.3,12.65,47.84626,-54.09684
2021-12-12 11:59:00+00:00,227.5597,6.3,12.65,47.84626,-54.09684
2021-12-12 12:09:00+00:00,224.5931,6.3,12.65,47.84626,-54.09684
2021-12-12 12:19:00+00:00,224.5164,6.3,12.65,47.84626,-54.09684
2021-12-12 12:29:00+00:00,225.3914,6.3,12.65,47.84626,-54.09684
2021-12-12 12:39:00+00:00,226.808,6.3,12.65,47.84626,-54.09684
2021-12-12 12:49:00+00:00,226.3548,6.35,12.65,47.84626,-54.09684
2021-12-12 12:59:00+00:00,224.3264,6.4,12.65,47.84626,-54.09684
2021-12-12 13:09:00+00:00,222.6481,6.4,12.65,47.84626,-54.09684
2021-12-12 13:19:01+00:00,222.9931,6.4,12.65,47.84626,-54.09684
2021-12-12 13:29:01+00:00,224.2497,6.4,12.65,47.84626,-54.09684
2021-12-12 13:39:01+00:00,226.2248,6.4,12.65,47.84626,-54.09684
2021-12-12 13:49:01+00:00,229.9331,6.4,12.65,47.84626,-54.09684
2021-12-12 13:59:01+00:00,229.0415,6.4,12.65,47.84626,-54.09684
2021-12-12 14:09:01+00:00,232.2464,6.4,12.65,47.84626,-54.09684
2021-12-12 14:19:00+00:00,243.5764,6.4,12.65,47.84626,-54.09684
2021-12-12 14:29:00+00:00,252.7348,6.4,12.65,47.84626,-54.09684
2021-12-12 14:39:00+00:00,254.1514,6.4,12.65,47.84626,-54.09684
2021-12-12 14:49:00+00:00,261.4764,6.42,12.65,47.84626,-54.09684
2021-12-12 14:59:00+00:00,271.6197,6.44,12.65,47.84626,-54.09684
2021-12-12 15:09:00+00:00,272.1047,6.46,12.65,47.84626,-54.09684
2021-12-12 15:19:01+00:00,269.0797,6.49,12.65,47.84626,-54.09684
2021-12-12 15:29:01+00:00,276.9114,6.49,12.65,47.84626,-54.09684
2021-12-12 15:39:01+00:00,283.1164,6.49,12.65,47.84626,-54.09684
2021-12-12 15:49:01+00:00,276.8981,6.5,12.65,47.84626,-54.09684
2021-12-12 15:59:01+00:00,277.2831,6.5,12.65,47.84626,-54.09684
2021-12-12 16:09:01+00:00,289.9614,6.5,12.65,47.84626,-54.09684
2021-12-12 16:19:00+00:00,297.8347,6.5,12.65,47.84626,-54.09684
2021-12-12 16:29:00+00:00,294.303,6.5,12.65,47.84626,-54.09684
2021-12-12 16:39:00+00:00,297.58299999999997,6.5,12.65,47.84626,-54.09684
2021-12-12 16:49:00+00:00,307.2264,6.5,12.65,47.84626,-54.09684
2021-12-12 16:59:00+00:00,306.9913,6.5,12.65,47.84626,-54.09684
2021-12-12 17:09:00+00:00,304.9313,6.5,12.65,47.84626,-54.09684
2021-12-12 17:19:01+00:00,313.8363,6.5,12.65,47.84626,-54.09684
2021-12-12 17:29:01+00:00,321.5463,6.5,12.65,47.84626,-54.09684
2021-12-12 17:39:01+00:00,319.0763,6.5,12.65,47.84626,-54.09684
2021-12-12 17:49:01+00:00,319.7463,6.5,12.65,47.84626,-54.09684
2021-12-12 17:59:01+00:00,327.8646,6.5,12.65,47.84626,-54.09684
2021-12-12 18:09:01+00:00,337.2212,6.5,12.65,47.84626,-54.09684
2021-12-12 18:19:01+00:00,340.5696,6.5,12.65,47.84626,-54.09684
2021-12-12 18:29:01+00:00,341.8362,6.5,12.65,47.84626,-54.09684
2021-12-12 18:39:01+00:00,344.903,6.5,12.65,47.84626,-54.09684
2021-12-12 18:49:01+00:00,344.9547,6.5,12.65,47.84626,-54.09684
2021-12-12 18:59:01+00:00,340.2413,6.5,12.65,47.84626,-54.09684
2021-12-12 19:09:01+00:00,338.7563,6.5,12.65,47.84626,-54.09684
2021-12-12 19:19:00+00:00,342.4196,6.5,12.65,47.84626,-54.09684
2021-12-12 19:29:00+00:00,338.6380000000001,6.5,12.65,47.84626,-54.09684
2021-12-12 19:39:00+00:00,336.1296,6.5,12.65,47.84626,-54.09684
2021-12-12 19:49:00+00:00,336.9996,6.5,12.65,47.84626,-54.09684
2021-12-12 19:59:00+00:00,340.5714,6.5,12.65,47.84626,-54.09684
2021-12-12 20:09:00+00:00,336.3447,6.5,12.65,47.84626,-54.09684
2021-12-12 20:19:00+00:00,331.0013,6.53,12.65,47.84626,-54.09684
2021-12-12 20:29:00+00:00,327.003,6.56,12.65,47.84626,-54.09684
2021-12-12 20:39:00+00:00,328.1697,6.57,12.65,47.84626,-54.09684
2021-12-12 20:49:00+00:00,321.7164,6.57,12.65,47.84626,-54.09684
2021-12-12 20:59:00+00:00,312.0714,6.58,12.65,47.84626,-54.09684
2021-12-12 21:09:00+00:00,303.5313,6.59,12.65,47.84626,-54.09684
2021-12-12 21:19:00+00:00,296.8264,6.59,12.65,47.84626,-54.09684
2021-12-12 21:29:00+00:00,284.8814,6.59,12.65,47.84626,-54.09684
2021-12-12 21:39:00+00:00,275.2798,6.6,12.65,47.84626,-54.09684
2021-12-12 21:49:00+00:00,265.8964,6.6,12.65,47.84626,-54.09684
2021-12-12 21:59:00+00:00,271.4781,6.6,12.65,47.84626,-54.09684
2021-12-12 22:09:00+00:00,275.8747,6.6,12.65,47.84626,-54.09684
2021-12-12 22:19:00+00:00,268.9498,6.59,12.65,47.84626,-54.09684
2021-12-12 22:29:00+00:00,261.3681,6.57,12.65,47.84626,-54.09684
2021-12-12 22:39:00+00:00,265.2947,6.56,12.65,47.84626,-54.09684
2021-12-12 22:49:00+00:00,258.6197,6.53,12.65,47.84626,-54.09684
2021-12-12 22:59:00+00:00,251.8598,6.51,12.65,47.84626,-54.09684
2021-12-12 23:09:00+00:00,250.7881,6.51,12.65,47.84626,-54.09684
2021-12-12 23:19:00+00:00,247.8014,6.5,12.57,47.84626,-54.09684
2021-12-12 23:29:00+00:00,233.9764,6.5,12.57,47.84626,-54.09684
2021-12-12 23:39:00+00:00,232.6931,6.5,12.57,47.84626,-54.09684
2021-12-12 23:49:00+00:00,244.4814,6.5,12.57,47.84626,-54.09684
2021-12-12 23:59:00+00:00,240.0948,6.5,12.57,47.84626,-54.09684
